This is the latest recevied weather packets stored in our database for station/object S56VIL-11. If no packets are shown the sender has not sent any weather packets the latest 10 day(s).
| Time | Temp. | Humidity | Pressure | Rain* | Wind** | Luminosity | Snow |
|---|---|---|---|---|---|---|---|
| 1788674148 | 17.22° C | 66% | 1036.8 hPa | - | - | - | - |
| 1788673248 | 16.67° C | 66% | 1036.7 hPa | - | - | - | - |
| 1788670548 | 16.11° C | 67% | 1036.3 hPa | - | - | - | - |
| 1788669648 | 16.11° C | 66% | 1036.3 hPa | - | - | - | - |
| 1788667848 | 16.67° C | 66% | 1036 hPa | - | - | - | - |
| 1788666948 | 16.67° C | 66% | 1036 hPa | - | - | - | - |
| 1788666047 | 16.67° C | 66% | 1035.8 hPa | - | - | - | - |
| 1788664247 | 17.22° C | 64% | 1035.8 hPa | - | - | - | - |
| 1788663347 | 17.22° C | 64% | 1035.7 hPa | - | - | - | - |
| 1788662447 | 17.78° C | 64% | 1035.6 hPa | - | - | - | - |
| 1788657947 | 17.78° C | 63% | 1035.6 hPa | - | - | - | - |
| 1788652547 | 18.33° C | 63% | 1035.5 hPa | - | - | - | - |
| 1788651647 | 18.33° C | 62% | 1035.2 hPa | - | - | - | - |
| 1788649848 | 18.33° C | 62% | 1035.2 hPa | - | - | - | - |
| 1788648947 | 18.33° C | 62% | 1035.2 hPa | - | - | - | - |
| 1788647147 | 18.89° C | 61% | 1035 hPa | - | - | - | - |
| 1788646247 | 18.89° C | 62% | 1034.9 hPa | - | - | - | - |
| 1788643547 | 19.44° C | 61% | 1034.8 hPa | - | - | - | - |
| 1788641746 | 20° C | 60% | 1034.9 hPa | - | - | - | - |
| 1788640846 | 20.56° C | 60% | 1034.8 hPa | - | - | - | - |
| 1788639046 | 20.56° C | 60% | 1034.5 hPa | - | - | - | - |
| 1788638146 | 20.56° C | 60% | 1034.4 hPa | - | - | - | - |
| 1788636346 | 20.56° C | 60% | 1034.1 hPa | - | - | - | - |
| 1788634546 | 21.11° C | 60% | 1034 hPa | - | - | - | - |
| 1788633646 | 21.11° C | 59% | 1033.7 hPa | - | - | - | - |
* Rain since midnight (hover to see other rain measurements)
** Current wind speed in m/s (hover to see current wind gust speed)